Wind_Speed
49 50 50 49 49 49 50 50 50 50 48 48 47 48 48 47 47 47 48 48 48 47 46 46 46 45 44 44 44 45 45 46 45 44 45 45 45 46
51 51 51 51 50 49 49 50 50 50 49 47 47 47 47 46 46 46 47 48 48 48 47 46 46 45 44 44 44 45 45 45 44 45 46 46 46 47
51 51 51 51 50 50 50 50 50 49 48 46 47 47 47 46 45 46 46 46 47 47 48 47 46 45 45 44 45 45 45 45 46 46 46 46 47 47
51 51 51 51 51 51 51 50 49 49 49 48 46 46 46 46 45 45 45 46 46 47 47 47 47 47 46 45 45 45 45 45 45 45 45 45 47 47
50 51 51 51 51 51 51 51 50 50 49 48 46 45 45 45 46 46 46 46 46 47 48 48 48 48 48 47 45 44 44 45 45 45 45 45 45 45
50 50 50 50 50 50 50 50 50 50 49 49 47 46 45 45 45 45 45 45 46 47 47 48 48 47 47 47 46 45 45 45 45 44 44 44 44 43
49 49 49 50 50 50 50 50 50 50 50 49 48 47 46 46 46 45 45 45 46 46 46 48 48 47 46 47 45 44 44 45 45 44 44 43 43 42
49 49 50 50 51 51 51 51 51 51 51 50 49 48 47 46 47 47 46 46 45 45 46 46 46 46 46 46 45 45 44 43 43 43 43 42 40 40
49 49 49 49 49 49 50 51 51 51 51 50 49 48 47 47 47 47 46 46 44 44 45 44 44 45 46 45 44 44 44 43 42 41 41 40 39 39
47 46 45 46 46 47 47 48 49 49 49 49 48 47 47 46 47 46 46 46 45 44 44 43 43 43 43 43 42 42 41 41 41 40 40 39 38 38
46 45 44 44 44 44 44 44 45 46 46 46 46 46 45 46 46 46 46 46 45 44 45 44 43 42 42 41 41 40 40 40 39 39 39 38 37 37
44 44 43 43 43 43 44 43 43 42 43 44 45 45 45 45 44 44 44 44 44 43 42 42 42 41 40 39 40 40 40 39 38 38 39 38 37 36
42 42 42 43 43 43 42 42 41 41 42 42 43 43 43 43 42 42 41 42 42 41 40 40 40 39 39 38 39 39 39 39 39 39 40 39 38 36
40 39 40 40 41 41 41 41 40 40 40 40 40 39 40 40 40 40 40 40 40 39 39 39 38 38 37 38 38 38 38 38 38 37 37 37 37 36
38 38 38 38 39 39 39 39 39 39 39 38 37 36 36 36 37 37 37 37 37 36 36 37 37 37 36 36 36 36 36 35 35 36 36 35 34 34
37 37 37 37 37 37 37 36 36 35 35 35 34 34 34 34 34 35 35 35 35 35 34 34 34 34 34 34 33 33 33 32 32 33 32 31 32 32
35 35 34 34 33 34 33 34 33 33 33 33 32 32 33 34 33 33 33 33 33 33 33 32 32 33 33 32 30 29 29 29 30 30 29 29 30 30
33 32 32 31 31 31 31 31 31 31 31 31 32 32 32 32 31 31 30 30 30 31 30 30 30 30 30 29 28 27 26 27 27 27 27 27 27 26
30 30 30 30 29 29 29 29 29 29 29 30 30 31 31 30 29 28 27 27 28 28 28 27 27 26 24 24 24 24 24 24 24 24 24 24 24 24
28 28 28 27 27 27 27 27 27 27 27 28 28 28 28 27 27 26 25 25 25 24 24 24 23 22 21 21 21 21 21 21 21 22 22 22 22 22
27 26 26 26 26 25 25 25 25 25 25 25 25 26 25 24 24 23 23 23 22 21 21 20 20 21 21 20 19 18 18 19 20 20 19 20 20 20
24 24 25 25 25 24 23 23 23 24 24 23 23 23 23 22 22 22 22 22 21 20 20 20 19 19 19 19 17 17 17 17 17 18 18 18 18 17
23 22 22 22 22 22 22 22 21 21 21 22 22 21 21 21 21 21 21 21 21 20 20 19 19 19 18 17 16 16 16 16 16 16 17 17 17 16
Wind_Direction
273 274 275 275 275 275 276 276 276 274 273 273 273 274 275 275 274 273 272 271 270 270 271 272 273 274 276 277 277 277 276 275 277 277 277 277 277 278
273 274 274 275 274 274 275 275 276 276 274 273 273 273 274 275 273 273 273 271 270 269 270 272 272 273 275 276 277 277 277 276 276 277 278 278 278 278
273 274 274 274 274 273 274 275 275 275 275 274 273 273 273 273 273 272 271 271 270 270 270 271 271 272 274 275 277 277 277 276 276 277 278 278 279 278
274 274 274 273 272 272 272 274 274 274 274 273 273 273 272 272 272 272 271 271 270 269 270 271 271 271 273 275 276 277 277 276 276 278 279 281 281 278
274 274 274 273 273 273 274 274 273 273 273 272 272 273 273 273 273 272 272 272 270 270 270 271 271 272 273 275 276 277 277 276 277 279 280 281 281 280
274 274 273 273 272 272 273 273 273 272 272 272 272 272 273 273 273 273 273 272 271 270 271 270 271 272 273 274 275 276 277 277 277 278 281 282 281 280
275 274 273 273 272 272 273 273 273 273 273 272 271 271 272 273 273 273 272 271 270 270 270 270 271 271 273 274 274 276 277 277 277 279 281 282 282 280
276 275 275 274 273 273 273 273 273 273 272 272 272 271 271 272 272 272 271 271 271 271 271 271 271 271 272 274 275 275 275 275 276 278 280 280 281 281
277 276 276 275 273 274 273 272 272 273 272 272 272 271 270 271 271 272 271 273 272 271 271 272 272 272 272 273 274 275 274 274 275 277 279 279 279 280
276 277 277 275 275 276 275 273 272 272 272 271 271 270 269 269 270 271 271 271 272 272 272 272 272 272 272 272 272 273 274 274 274 276 278 279 278 278
277 277 279 279 277 277 276 274 274 273 271 270 271 271 269 269 270 270 270 270 271 271 272 273 272 272 272 272 271 272 273 273 273 275 276 277 277 278
277 277 278 278 277 277 276 275 275 274 272 271 271 269 268 268 269 269 270 270 270 270 271 271 271 271 271 271 270 270 272 271 271 274 276 275 275 276
277 277 277 277 277 276 275 274 274 273 273 272 270 268 267 267 267 267 269 270 270 270 269 269 270 270 272 272 271 271 270 270 271 274 274 274 274 274
279 278 278 278 277 277 275 274 273 273 273 272 271 269 268 267 268 269 269 270 270 270 268 268 269 269 271 272 273 271 271 271 271 273 272 271 272 273
281 280 280 279 279 277 276 274 273 273 272 272 270 269 268 268 269 270 269 270 270 269 268 267 268 269 271 272 273 272 271 270 271 271 271 269 271 272
281 281 281 280 279 277 275 273 273 272 270 269 269 268 267 267 268 269 268 268 269 270 269 268 269 270 271 272 273 272 272 271 272 272 271 269 269 269
281 281 281 280 279 277 275 274 273 271 269 268 267 267 267 267 268 268 267 267 268 269 269 268 268 271 272 270 271 272 274 274 273 273 270 271 270 271
280 279 280 279 279 277 275 273 271 271 270 268 268 268 269 269 268 267 265 265 268 269 269 267 268 270 269 269 271 273 274 274 275 275 272 272 272 274
281 280 279 279 279 277 276 274 273 272 271 270 270 270 270 270 267 266 265 266 266 267 266 266 266 265 266 269 271 272 272 274 275 273 271 272 273 274
283 282 280 279 279 278 277 276 275 274 274 272 271 271 269 267 265 265 264 265 266 265 264 263 263 263 266 269 270 269 269 272 273 273 270 270 273 273
283 282 281 279 279 279 278 277 276 276 277 276 273 271 268 264 264 264 263 264 264 261 261 263 262 261 263 266 268 268 269 270 270 271 270 271 273 272
283 283 282 280 280 280 279 276 275 277 277 276 274 270 266 262 261 261 260 259 258 258 259 261 262 261 261 263 266 268 270 268 269 270 270 271 270 270
282 282 282 281 281 281 278 276 275 275 276 275 272 268 264 262 260 259 257 255 254 255 257 260 262 260 260 259 261 264 266 268 270 270 269 271 271 271
Height
5646 5646 5645 5645 5644 5643 5642 5642 5641 5642 5644 5644 5642 5641 5640 5639 5639 5638 5638 5638 5638 5638 5638 5638 5638 5638 5637 5637 5636 5635 5635 5634 5634 5633 5632 5631 5629 5628
5633 5633 5632 5631 5631 5630 5629 5628 5627 5627 5628 5630 5629 5628 5627 5627 5626 5625 5625 5625 5626 5626 5626 5626 5626 5626 5625 5625 5624 5623 5622 5621 5621 5620 5619 5617 5616 5614
5619 5619 5619 5618 5617 5617 5616 5615 5614 5614 5614 5616 5615 5615 5614 5614 5613 5613 5612 5612 5613 5613 5613 5613 5613 5613 5612 5612 5611 5610 5609 5609 5608 5607 5605 5604 5602 5601
5606 5605 5605 5604 5604 5603 5602 5602 5601 5601 5601 5602 5602 5601 5601 5601 5601 5600 5600 5600 5600 5600 5600 5600 5600 5600 5600 5599 5599 5598 5597 5596 5595 5594 5593 5592 5590 5587
5592 5591 5591 5590 5590 5589 5589 5588 5588 5587 5587 5588 5589 5589 5589 5588 5588 5588 5588 5587 5587 5588 5587 5587 5588 5587 5587 5586 5586 5585 5585 5584 5583 5582 5580 5579 5576 5574
5578 5577 5577 5576 5576 5575 5575 5574 5574 5574 5574 5574 5575 5576 5576 5575 5575 5575 5575 5575 5575 5575 5575 5575 5575 5574 5574 5574 5574 5573 5573 5572 5571 5570 5568 5567 5565 5563
5564 5564 5563 5562 5561 5561 5560 5560 5560 5559 5560 5560 5561 5562 5563 5562 5563 5562 5562 5562 5562 5563 5563 5563 5563 5563 5562 5561 5561 5560 5560 5559 5558 5558 5556 5555 5553 5551
5551 5550 5549 5548 5547 5547 5546 5546 5545 5545 5545 5546 5547 5548 5549 5549 5549 5549 5549 5550 5551 5552 5550 5551 5550 5550 5550 5549 5548 5548 5547 5547 5546 5545 5545 5543 5542 5540
5537 5536 5535 5534 5533 5532 5532 5531 5531 5530 5531 5532 5533 5534 5535 5536 5536 5536 5536 5536 5537 5538 5537 5538 5538 5538 5537 5536 5536 5535 5535 5535 5535 5534 5533 5532 5531 5529
5523 5522 5521 5520 5519 5518 5517 5517 5516 5516 5517 5517 5519 5520 5521 5521 5522 5522 5523 5523 5524 5525 5524 5525 5526 5525 5525 5524 5524 5524 5524 5523 5523 5523 5522 5521 5520 5519
5509 5508 5507 5506 5505 5504 5503 5503 5503 5503 5502 5503 5504 5505 5506 5508 5508 5508 5509 5509 5511 5512 5512 5512 5513 5513 5513 5513 5513 5512 5512 5512 5512 5511 5511 5510 5509 5508
5497 5496 5494 5493 5492 5490 5490 5490 5490 5490 5490 5490 5491 5491 5492 5493 5494 5495 5495 5496 5497 5499 5500 5499 5500 5500 5501 5502 5502 5501 5501 5501 5500 5500 5500 5499 5498 5497
5484 5483 5482 5481 5479 5478 5477 5477 5477 5477 5477 5477 5478 5479 5480 5480 5481 5482 5483 5483 5484 5486 5487 5487 5487 5488 5489 5490 5491 5490 5489 5489 5489 5489 5488 5488 5488 5487
5472 5471 5470 5468 5467 5466 5465 5465 5465 5464 5465 5465 5466 5467 5468 5469 5470 5470 5471 5471 5472 5473 5474 5474 5475 5476 5477 5478 5479 5479 5478 5478 5478 5477 5477 5477 5477 5476
5459 5459 5458 5456 5455 5454 5454 5453 5453 5453 5453 5454 5455 5456 5457 5458 5459 5459 5460 5460 5460 5461 5462 5463 5464 5464 5465 5466 5467 5467 5467 5467 5467 5467 5467 5467 5467 5466
5448 5447 5446 5445 5444 5443 5443 5442 5442 5442 5443 5444 5445 5446 5447 5447 5448 5449 5449 5450 5450 5450 5451 5451 5452 5453 5454 5455 5456 5457 5457 5457 5457 5457 5457 5457 5457 5457
5437 5436 5436 5434 5434 5433 5433 5433 5433 5433 5434 5434 5435 5436 5437 5438 5438 5439 5439 5439 5440 5441 5441 5441 5442 5443 5444 5445 5446 5447 5447 5447 5448 5448 5448 5448 5448 5448
5427 5426 5426 5425 5424 5424 5424 5424 5424 5424 5425 5425 5426 5427 5428 5428 5429 5429 5429 5430 5431 5431 5432 5432 5433 5433 5435 5436 5438 5438 5439 5439 5440 5440 5440 5440 5440 5440
5418 5418 5417 5417 5416 5415 5415 5415 5416 5416 5416 5416 5417 5418 5419 5419 5420 5420 5421 5421 5422 5423 5423 5424 5424 5426 5427 5429 5430 5430 5431 5431 5432 5432 5433 5433 5433 5433
5410 5410 5409 5408 5408 5408 5407 5407 5408 5408 5408 5408 5409 5409 5410 5411 5412 5412 5413 5414 5414 5415 5416 5416 5417 5419 5420 5422 5423 5423 5423 5424 5425 5425 5426 5426 5426 5426
5403 5402 5401 5401 5400 5400 5400 5400 5400 5400 5400 5400 5401 5401 5402 5403 5404 5405 5406 5406 5407 5408 5410 5410 5411 5412 5413 5415 5416 5416 5417 5417 5418 5419 5420 5420 5421 5421
5396 5395 5394 5394 5393 5393 5393 5393 5393 5393 5393 5393 5393 5394 5395 5396 5397 5398 5399 5400 5401 5403 5404 5405 5405 5406 5407 5408 5409 5410 5411 5412 5412 5413 5413 5415 5415 5415
5389 5389 5388 5387 5387 5386 5386 5386 5386 5387 5387 5387 5387 5387 5388 5389 5390 5391 5393 5394 5395 5397 5398 5399 5400 5401 5402 5402 5404 5405 5406 5406 5407 5408 5408 5408 5409 5409